Regional Weather Roundup
Issued by NWS

Home | Current Version | Previous Version | Text Only | Print | Product List | Glossary Off
Versions: 1 2 3 4 5 6 7 8 9 10 11 12 13 14 15 16 17 18 19 20 21 22 23 24 25 26 27 28 29 30 31 32 33 34 35 36 37 38 39 40 41 42 43 44 45 46 47 48 49 50

000
ASUS43 KOAX 070302
RWRNE

WEATHER ROUNDUP FOR NEBRASKA
NATIONAL WEATHER SERVICE OMAHA NE
900 PM CST SAT FEB 06 2016

NOTES: SATELLITE DATA IS BEING USED TO AUGMENT CLOUD COVER ABOVE
       12000 FEET.
       "FAIR" INDICATES FEW OR NO CLOUDS BELOW 12,000 FEET WITH NO
       SIGNIFICANT WEATHER AND/OR OBSTRUCTIONS TO VISIBILITY.

  * THESE STATIONS DO NOT REPORT WEATHER SUCH AS RAIN...SNOW OR FOG.

NEZ001>004-019>022-054>056-070400-
NEBRASKA PANHANDLE

CITY           SKY/WX    TMP DP  RH WIND       PRES   REMARKS
SCOTTSBLUFF    CLOUDY    40  25  55 NW23G33   30.04R WCI  30
ALLIANCE       CLOUDY    37  24  59 NW22      30.02R WCI  26
CHADRON        CLOUDY    36  27  69 W14       30.04R WCI  27
KIMBALL        CLOUDY    41  24  50 W26       30.04R
SIDNEY         CLOUDY    37  28  70 MISG      30.05R
$$

NEZ057>060-069>072-079>082-070400-
SOUTHWEST NEBRASKA

CITY           SKY/WX    TMP DP  RH WIND       PRES   REMARKS
NORTH PLATTE   CLOUDY    32  24  72 W8        29.98S WCI  25
IMPERIAL       CLOUDY    33  24  69 W12       30.02R WCI  24
MCCOOK         CLOUDY    33  24  69 W6        30.02R WCI  28
$$

NEZ005>010-023>029-035>040-094-070400-
NORTH CENTRAL NEBRASKA

CITY           SKY/WX    TMP DP  RH WIND       PRES   REMARKS
VALENTINE      CLOUDY    40  29  64 NW12      29.96R WCI  33
AINSWORTH      CLOUDY    40  29  66 NW16G24   29.94R WCI  31
BROKEN BOW     PTCLDY    36  27  69 W13       29.94S WCI  27
ORD            CLOUDY    35  27  72 W7        29.91F WCI  29
$$

NEZ041-046>049-061>064-073>077-083>087-070400-
SOUTH CENTRAL NEBRASKA

CITY           SKY/WX    TMP DP  RH WIND       PRES   REMARKS
GRAND ISLAND   CLOUDY    33  26  75 SW15      29.95F WCI  23
HASTINGS       CLOUDY    34  26  72 SW8       29.97S WCI  27
HEBRON         PTCLDY    36  29  74 SW12G17   30.00F WCI  28
$$

NEZ011>018-030>034-042>045-070400-
NORTHEAST NEBRASKA

CITY           SKY/WX    TMP DP  RH WIND       PRES   REMARKS
NORFOLK        CLOUDY    34  27  75 SW8       29.89F WCI  27
BLAIR          PTCLDY    35  27  71 SW13      29.95F WCI  26
COLUMBUS *     CLOUDY    34  19  55 SW13      29.93F WCI  25
FREMONT        CLOUDY    34  25  70 S10       29.95F WCI  26
TEKAMAH        CLOUDY    32  25  75 S15       29.93F WCI  22
$$

NEZ050>053-065>068-078-088>093-070400-
SOUTHEAST NEBRASKA

CITY           SKY/WX    TMP DP  RH WIND       PRES   REMARKS
LINCOLN        PTCLDY    37  27  67 SW8       30.00S WCI  31
OMAHA EPPLEY   MOCLDY    39  26  59 S9        29.97F WCI  33
BEATRICE       CLOUDY    38  28  66 SW14      29.99F WCI  30
FALLS CITY     CLOUDY    39  27  62 S14       30.04F WCI  31
NEBRASKA CITY  CLOUDY    36  30  78 S14       29.99F WCI  27
$$

NEZ044-045-051>053-067-070400-
OMAHA AREA

CITY           SKY/WX    TMP DP  RH WIND       PRES   REMARKS
OMAHA EPPLEY   MOCLDY    39  26  59 S9        29.97F WCI  33
BLAIR          PTCLDY    35  27  71 SW13      29.95F WCI  26
FREMONT        CLOUDY    34  25  70 S10       29.95F WCI  26
OFFUTT AFB     CLOUDY    39  28  65 SW7       29.98S WCI  34
$$



USA.gov is the U.S. government's official web portal to all federal, state and local government web resources and services.